TimeEST,TemperatureF,Dew PointF,Humidity,Sea Level PressureIn,VisibilityMPH,Wind Direction,Wind SpeedMPH,Gust SpeedMPH,PrecipitationIn,Events,Conditions,WindDirDegrees,DateUTC
12:12 AM,29.1,23.9,81,30.31,10.0,SE,5.8,-,N/A,,Clear,130,2012-12-06 05:12:00
12:32 AM,29.1,23.5,80,30.31,10.0,SE,6.9,-,N/A,,Clear,130,2012-12-06 05:32:00
12:52 AM,28.9,23.5,80,30.30,10.0,SE,4.6,-,N/A,,Clear,130,2012-12-06 05:52:00
1:12 AM,28.9,23.2,79,30.29,10.0,SE,6.9,-,N/A,,Clear,130,2012-12-06 06:12:00
1:33 AM,28.6,23.0,80,30.29,10.0,ESE,5.8,-,N/A,,Clear,120,2012-12-06 06:33:00
1:52 AM,28.4,23.4,81,30.28,10.0,SE,5.8,-,N/A,,Clear,130,2012-12-06 06:52:00
2:12 AM,28.2,23.4,82,30.28,10.0,SE,5.8,-,N/A,,Clear,140,2012-12-06 07:12:00
2:33 AM,28.0,23.0,81,30.27,10.0,SE,5.8,-,N/A,,Clear,130,2012-12-06 07:33:00
2:52 AM,28.0,23.0,81,30.27,10.0,SE,5.8,-,N/A,,Clear,130,2012-12-06 07:52:00
3:12 AM,28.0,23.0,81,30.27,10.0,SE,5.8,-,N/A,,Clear,130,2012-12-06 08:12:00
3:33 AM,28.0,23.0,81,30.27,10.0,SE,4.6,-,N/A,,Clear,140,2012-12-06 08:33:00
3:52 AM,27.9,23.0,82,30.26,10.0,SE,8.1,-,N/A,,Clear,130,2012-12-06 08:52:00
4:12 AM,27.5,23.0,83,30.26,10.0,SE,3.5,-,N/A,,Clear,140,2012-12-06 09:12:00
4:33 AM,27.3,23.4,85,30.25,10.0,SSE,5.8,-,N/A,,Clear,150,2012-12-06 09:33:00
4:52 AM,27.5,23.5,85,30.24,10.0,SE,6.9,-,N/A,,Clear,130,2012-12-06 09:52:00
5:12 AM,27.5,23.5,85,30.25,10.0,SSE,3.5,-,N/A,,Clear,160,2012-12-06 10:12:00
5:33 AM,27.3,23.5,86,30.25,10.0,SSE,4.6,-,N/A,,Clear,150,2012-12-06 10:33:00
5:52 AM,27.3,23.5,86,30.25,10.0,SE,4.6,-,N/A,,Clear,140,2012-12-06 10:52:00
6:12 AM,27.3,23.5,86,30.24,10.0,SSE,3.5,-,N/A,,Clear,150,2012-12-06 11:12:00
6:33 AM,27.5,23.9,86,30.23,10.0,SSE,4.6,-,N/A,,Clear,160,2012-12-06 11:33:00
6:52 AM,27.5,23.9,86,30.23,10.0,SSE,4.6,-,N/A,,Clear,150,2012-12-06 11:52:00
7:12 AM,27.5,24.3,88,30.22,10.0,SSE,5.8,-,N/A,,Clear,150,2012-12-06 12:12:00
7:32 AM,28.0,24.3,86,30.21,10.0,SE,8.1,-,N/A,,Clear,140,2012-12-06 12:32:00
7:52 AM,28.8,24.4,84,30.20,10.0,SSE,8.1,-,N/A,,Clear,150,2012-12-06 12:52:00
8:13 AM,29.1,24.4,83,30.19,10.0,SSE,8.1,-,N/A,,Clear,160,2012-12-06 13:13:00
8:32 AM,29.8,24.8,81,30.19,10.0,SSE,10.4,-,N/A,,Clear,160,2012-12-06 13:32:00
8:52 AM,30.6,25.2,80,30.19,10.0,SSE,9.2,-,N/A,,Clear,160,2012-12-06 13:52:00
9:13 AM,31.1,25.5,80,30.18,10.0,SSE,10.4,-,N/A,,Clear,150,2012-12-06 14:13:00
9:32 AM,32.0,26.1,79,30.18,10.0,SSE,9.2,-,N/A,,Clear,160,2012-12-06 14:32:00
9:52 AM,32.2,25.9,78,30.18,10.0,South,10.4,-,N/A,,Clear,170,2012-12-06 14:52:00
10:13 AM,32.5,25.7,76,30.18,10.0,South,8.1,-,N/A,,Clear,170,2012-12-06 15:13:00
10:32 AM,32.9,25.9,75,30.18,10.0,South,11.5,17.3,N/A,,Clear,170,2012-12-06 15:32:00
10:52 AM,33.1,26.1,75,30.18,10.0,South,9.2,19.6,N/A,,Clear,170,2012-12-06 15:52:00
11:13 AM,34.2,26.4,73,30.16,10.0,South,12.7,16.1,N/A,,Clear,170,2012-12-06 16:13:00
11:32 AM,34.7,25.7,70,30.15,10.0,South,6.9,-,N/A,,Clear,180,2012-12-06 16:32:00
11:52 AM,35.2,26.8,71,30.13,10.0,South,9.2,16.1,N/A,,Clear,170,2012-12-06 16:52:00
12:13 PM,35.6,26.2,69,30.11,10.0,South,8.1,-,N/A,,Clear,170,2012-12-06 17:13:00
12:32 PM,36.0,26.2,68,30.10,10.0,South,8.1,-,N/A,,Clear,170,2012-12-06 17:32:00
12:52 PM,36.5,26.8,68,30.08,10.0,SSE,6.9,-,N/A,,Clear,160,2012-12-06 17:52:00
1:13 PM,36.5,26.4,67,30.08,10.0,South,9.2,-,N/A,,Clear,170,2012-12-06 18:13:00
1:32 PM,36.7,27.0,68,30.07,10.0,South,4.6,-,N/A,,Clear,170,2012-12-06 18:32:00
1:52 PM,36.9,27.3,68,30.06,10.0,SSE,6.9,-,N/A,,Clear,160,2012-12-06 18:52:00
2:13 PM,37.4,27.5,67,30.05,10.0,South,5.8,-,N/A,,Clear,170,2012-12-06 19:13:00
2:32 PM,37.8,28.4,69,30.04,10.0,SSE,5.8,-,N/A,,Clear,160,2012-12-06 19:32:00
2:53 PM,39.0,28.9,67,30.03,10.0,SSE,8.1,-,N/A,,Clear,150,2012-12-06 19:53:00
3:13 PM,39.4,29.5,68,30.02,10.0,SSE,8.1,-,N/A,,Clear,150,2012-12-06 20:13:00
3:32 PM,39.2,29.7,69,30.01,10.0,SSE,11.5,-,N/A,,Clear,150,2012-12-06 20:32:00
3:53 PM,38.7,30.0,71,30.01,10.0,South,4.6,-,N/A,,Clear,170,2012-12-06 20:53:00
4:13 PM,38.3,29.7,71,30.01,10.0,South,4.6,-,N/A,,Clear,170,2012-12-06 21:13:00
4:32 PM,37.9,30.2,74,30.01,10.0,SSE,4.6,-,N/A,,Clear,160,2012-12-06 21:32:00
4:53 PM,37.8,30.2,74,30.00,10.0,SSE,8.1,-,N/A,,Scattered Clouds,150,2012-12-06 21:53:00
5:13 PM,37.6,30.2,75,29.98,10.0,SSE,11.5,-,N/A,,Scattered Clouds,160,2012-12-06 22:13:00
5:32 PM,37.4,30.6,76,29.98,10.0,SSE,8.1,-,N/A,,Clear,160,2012-12-06 22:32:00
5:53 PM,37.4,30.6,76,29.99,10.0,SSE,8.1,-,N/A,,Clear,160,2012-12-06 22:53:00
6:13 PM,36.9,30.9,79,29.98,10.0,SSE,9.2,-,N/A,,Clear,160,2012-12-06 23:13:00
6:32 PM,36.9,30.7,79,29.99,10.0,South,11.5,-,N/A,,Scattered Clouds,170,2012-12-06 23:32:00
6:53 PM,36.7,30.9,80,29.99,10.0,South,9.2,-,N/A,,Mostly Cloudy,170,2012-12-06 23:53:00
7:13 PM,36.5,31.1,81,29.98,10.0,SSE,9.2,-,N/A,,Mostly Cloudy,160,2012-12-07 00:13:00
7:32 PM,36.5,31.1,81,29.99,10.0,South,8.1,-,N/A,,Mostly Cloudy,170,2012-12-07 00:32:00
7:53 PM,36.5,31.5,82,29.98,10.0,South,9.2,-,N/A,,Mostly Cloudy,170,2012-12-07 00:53:00
8:13 PM,36.5,31.5,82,29.98,10.0,South,8.1,-,N/A,,Scattered Clouds,170,2012-12-07 01:13:00
8:32 PM,36.0,31.5,84,29.97,10.0,South,9.2,-,N/A,,Clear,170,2012-12-07 01:32:00
8:53 PM,36.0,31.6,84,29.96,10.0,South,10.4,-,N/A,,Scattered Clouds,170,2012-12-07 01:53:00
9:33 PM,36.1,31.8,84,29.96,10.0,South,8.1,-,N/A,,Overcast,170,2012-12-07 02:33:00
9:53 PM,36.5,32.0,84,29.95,10.0,South,9.2,-,N/A,,Overcast,170,2012-12-07 02:53:00
10:13 PM,36.5,32.0,84,29.96,10.0,South,4.6,-,N/A,,Overcast,180,2012-12-07 03:13:00
10:33 PM,36.7,32.0,83,29.95,10.0,South,5.8,-,N/A,,Overcast,170,2012-12-07 03:33:00
10:53 PM,37.0,32.0,82,29.95,10.0,South,5.8,-,N/A,,Overcast,180,2012-12-07 03:53:00
11:13 PM,37.4,32.0,81,29.94,10.0,South,3.5,-,N/A,,Overcast,170,2012-12-07 04:13:00
11:32 PM,37.4,32.2,81,29.94,10.0,Calm,Calm,-,N/A,,Overcast,0,2012-12-07 04:32:00
11:52 PM,37.4,32.4,82,29.93,10.0,SSW,3.5,-,N/A,,Overcast,210,2012-12-07 04:52:00